Torna al catalogo

STARLINK-32699

AttivoComunicazioniVLEO
NORAD 62482·PAYLOAD·🇺🇸 United States

Lanciato Dec 31, 2024 da Cape Canaveral Space Force Station

Loading…

Prossimi Passaggi (prossime 24 ore)

TLE

AggiornatoSource: CelesTrak SupGP

Epoca: Sep 14, 2026, 21:23 UTC

1 62482C 24254W   26257.89145833  .00047015  00000+0  17026-2 0  2573
2 62482  43.0045  31.0720 0001676 272.6641  21.6772 15.27559971    18

Traccia STARLINK-32699 in tempo reale con AllMySat

Download on the App Store